PST,Max TemperatureF,Mean TemperatureF,Min TemperatureF,Max Dew PointF,MeanDew PointF,Min DewpointF,Max Humidity, Mean Humidity, Min Humidity, Max Sea Level PressureIn, Mean Sea Level PressureIn, Min Sea Level PressureIn, Max VisibilityMiles, Mean VisibilityMiles, Min VisibilityMiles, Max Wind SpeedMPH, Mean Wind SpeedMPH, Max Gust SpeedMPH,PrecipitationIn, CloudCover, Events, WindDirDegrees
2013-2-1,35,30,25,34,31,25,100,95,89,30.51,30.34,30.18,10,4,0,9,3,10,0.00,6,Fog,226
2013-2-2,38,32,25,34,30,25,100,91,82,30.53,30.43,30.30,10,3,0,8,2,9,0.00,6,Fog,354
2013-2-3,35,32,29,34,32,28,100,96,92,30.28,30.18,30.08,4,1,0,5,0,7,0.00,8,Fog,308
2013-2-4,36,30,24,32,30,23,100,95,89,30.16,30.08,29.99,10,4,0,12,4,14,0.00,6,Fog,206
2013-2-5,39,32,24,35,30,25,100,93,85,30.01,29.89,29.81,10,6,0,14,4,17,T,5,Fog,183
2013-2-6,39,35,31,32,31,29,96,86,76,30.09,30.04,29.91,10,10,10,14,4,17,0.00,6,,159
2013-2-7,38,35,31,34,33,30,100,91,82,30.06,29.97,29.92,10,9,3,13,3,16,0.03,8,Snow,19
2013-2-8,40,30,20,34,30,21,100,82,64,30.16,30.09,30.01,10,4,0,8,2,9,0.00,6,Fog,165
2013-2-9,32,24,15,28,23,15,100,93,85,30.27,30.12,30.03,10,4,0,7,2,8,0.00,4,Fog,227
2013-2-10,33,24,14,29,23,13,100,88,75,30.35,30.27,30.18,10,8,2,8,1,9,0.00,6,,270
2013-2-11,37,30,22,30,27,21,100,85,70,30.27,30.25,30.19,10,10,5,5,1,5,0.00,8,,329
2013-2-12,38,35,31,34,31,28,92,87,82,30.33,30.25,30.13,10,9,5,13,5,15,0.00,7,,174
2013-2-13,43,31,18,34,27,18,100,81,62,30.40,30.25,30.13,10,9,1,13,4,17,0.00,1,,147
2013-2-14,39,27,14,30,22,12,100,82,64,30.59,30.48,30.33,10,8,0,6,1,6,0.00,4,Fog,350
2013-2-15,45,30,15,32,23,13,100,79,58,30.61,30.50,30.32,10,8,0,6,1,7,0.00,0,Fog,309
2013-2-16,39,29,18,36,28,17,100,88,76,30.30,30.04,29.90,10,8,0,15,2,18,0.00,4,Fog,186
2013-2-17,44,32,19,28,25,20,100,72,43,30.14,30.04,29.92,10,7,0,10,3,14,0.00,4,Fog,153
2013-2-18,42,31,19,28,24,17,100,80,59,30.13,29.99,29.82,10,10,10,12,3,15,0.00,4,,37
2013-2-19,37,33,29,34,31,26,100,89,78,29.89,29.77,29.71,10,4,0,7,3,9,0.12,8,Fog-Snow,23
2013-2-20,36,25,14,30,25,14,100,80,59,30.05,29.93,29.84,10,4,0,10,3,13,T,5,Fog-Snow,196
2013-2-21,34,24,13,31,25,10,100,92,84,30.08,29.99,29.94,10,6,0,9,3,12,0.09,7,Fog-Snow,140
2013-2-22,38,35,31,34,31,27,100,88,75,30.01,29.82,29.58,10,4,0,23,10,28,0.29,8,Fog-Snow,166
2013-2-23,39,27,15,29,22,12,96,78,59,30.26,30.04,29.71,10,6,0,17,7,21,0.00,2,Fog,178
2013-2-24,38,26,13,29,20,12,96,83,70,30.38,30.26,30.10,10,6,0,10,3,12,0.00,6,Fog,160
2013-2-25,39,34,28,32,30,24,100,85,70,30.13,29.95,29.87,10,6,0,15,6,20,0.26,8,Fog-Snow,177
2013-2-26,40,30,20,27,24,19,100,77,54,30.36,30.30,30.17,10,10,9,13,4,,0.00,5,,172
2013-2-27,41,32,22,28,26,22,92,76,59,30.32,30.29,30.24,10,10,10,10,2,12,0.00,5,,94
2013-2-28,40,35,29,36,33,26,100,91,82,30.39,30.33,30.27,10,6,1,7,2,8,0.14,8,Rain,34